{"data":{"norad_id":68003,"epoch":"2026-05-24T21:09:04.948992Z","epoch_age_seconds":79095,"freshness":"FRESH","line1":"1 68003U 26039T   26144.88130728  .00017623  00000+0  64811-3 0  9992","line2":"2 68003  43.0012 338.8397 0001444 272.6036  87.4650 15.27594253 13354","mean_motion":15.27594253,"eccentricity":0.0001444,"inclination_deg":43.0012,"raan_deg":338.8397,"arg_perigee_deg":272.6036,"mean_anomaly_deg":87.465,"bstar":0.00064811,"rev_number":1335,"period_min":94.265869171216,"perigee_km":482.01566865248,"apogee_km":483.99716687153,"semimajor_km":6861.143417762,"source":"CELESTRAK","updated_at":"2026-05-25T13:38:21.782517Z"}}